Satellite: NOAA-11 Catalog number: 19531 Epoch time: 13248.34969971 Element set: 498 Inclination: 098.7066 deg RA of node: 329.4780 deg Eccentricity: 0.0011584 Arg of perigee: 038.2307 deg Mean anomaly: 003.1866 deg Mean motion: 14.15026702 rev/day Decay rate: 4.3e-07 rev/day^2 Epoch rev: 28746 Checksum: 316
Satellite: NOAA-12 Catalog number: 21263 Epoch time: 13248.49008583 Element set: 963 Inclination: 098.6932 deg RA of node: 273.2240 deg Eccentricity: 0.0013332 Arg of perigee: 350.8842 deg Mean anomaly: 146.4581 deg Mean motion: 14.25584555 rev/day Decay rate: 2.0e-08 rev/day^2 Epoch rev: 15999 Checksum: 309
Satellite: MET-3/5 Catalog number: 21655 Epoch time: 13248.77541192 Element set: 777 Inclination: 082.5584 deg RA of node: 197.3529 deg Eccentricity: 0.0012025 Arg of perigee: 290.0853 deg Mean anomaly: 069.8975 deg Mean motion: 13.17052749 rev/day Decay rate: -3.96e-06 rev/day^2 Epoch rev: 6054 Checksum: 334
Satellite: MET-2/21 Catalog number: 22782 Epoch time: 13247.81741936 Element set: 835 Inclination: 082.5499 deg RA of node: 039.7281 deg Eccentricity: 0.0021755 Arg of perigee: 348.8682 deg Mean anomaly: 119.8463 deg Mean motion: 13.83711053 rev/day Decay rate: 4.9e-07 rev/day^2 Epoch rev: 1065 Checksum: 324
Satellite: OKEAN-4 Catalog number: 23317 Epoch time: 13247.80434521 Element set: 314 Inclination: 082.5416 deg RA of node: 335.2703 deg Eccentricity: 0.0019785 Arg of perigee: 325.7847 deg Mean anomaly: 138.0145 deg Mean motion: 14.84616748 rev/day Decay rate: 6.11e-06 rev/day^2 Epoch rev: 2075 Checksum: 290
Satellite: NOAA-14 Catalog number: 23455 Epoch time: 13248.46204985 Element set: 442 Inclination: 098.7993 deg RA of node: 331.6731 deg Eccentricity: 0.0010502 Arg of perigee: 127.6935 deg Mean anomaly: 296.6499 deg Mean motion: 14.13919546 rev/day Decay rate: -3.4e-07 rev/day^2 Epoch rev: 96371 Checksum: 333
Satellite: NOAA-15 Catalog number: 25338 Epoch time: 13248.48029552 Element set: 862 Inclination: 098.7320 deg RA of node: 238.2758 deg Eccentricity: 0.0009590 Arg of perigee: 251.9178 deg Mean anomaly: 272.7291 deg Mean motion: 14.25261638 rev/day Decay rate: 1.01e-06 rev/day^2 Epoch rev: 79628 Checksum: 328
Satellite: RESURS Catalog number: 25394 Epoch time: 13248.59728559 Element set: 462 Inclination: 098.3720 deg RA of node: 220.6168 deg Eccentricity: 0.0001960 Arg of perigee: 055.4626 deg Mean anomaly: 075.3948 deg Mean motion: 14.24335087 rev/day Decay rate: -2.1e-07 rev/day^2 Epoch rev: 78780 Checksum: 318
Satellite: FENGYUN1 Catalog number: 25730 Epoch time: 13247.83490010 Element set: 956 Inclination: 098.8852 deg RA of node: 206.3937 deg Eccentricity: 0.0025067 Arg of perigee: 182.8088 deg Mean anomaly: 237.8956 deg Mean motion: 14.10630965 rev/day Decay rate: 6.09e-06 rev/day^2 Epoch rev: 73727 Checksum: 330
Satellite: OKEAN-0 Catalog number: 25860 Epoch time: 13247.83967153 Element set: 38 Inclination: 098.0001 deg RA of node: 209.2626 deg Eccentricity: 0.0000954 Arg of perigee: 127.0493 deg Mean anomaly: 287.9314 deg Mean motion: 14.74685784 rev/day Decay rate: 3.39e-06 rev/day^2 Epoch rev: 76009 Checksum: 315
Satellite: NOAA-16 Catalog number: 26536 Epoch time: 13248.51625075 Element set: 351 Inclination: 099.0339 deg RA of node: 302.0458 deg Eccentricity: 0.0009589 Arg of perigee: 267.3509 deg Mean anomaly: 230.1279 deg Mean motion: 14.12912337 rev/day Decay rate: 1.78e-06 rev/day^2 Epoch rev: 66791 Checksum: 317
Satellite: NOAA-17 Catalog number: 27453 Epoch time: 13248.50712065 Element set: 259 Inclination: 098.3132 deg RA of node: 258.3306 deg Eccentricity: 0.0010459 Arg of perigee: 290.8458 deg Mean anomaly: 231.8154 deg Mean motion: 14.24616188 rev/day Decay rate: 4.5e-07 rev/day^2 Epoch rev: 58215 Checksum: 303
Satellite: NOAA-18 Catalog number: 28654 Epoch time: 13248.52122318 Element set: 745 Inclination: 099.1098 deg RA of node: 217.9291 deg Eccentricity: 0.0013937 Arg of perigee: 347.6058 deg Mean anomaly: 117.9527 deg Mean motion: 14.11859698 rev/day Decay rate: 5.0e-07 rev/day^2 Epoch rev: 42739 Checksum: 340
Satellite: NOAA-19 Catalog number: 33591 Epoch time: 13248.49321596 Element set: 926 Inclination: 098.9088 deg RA of node: 189.9440 deg Eccentricity: 0.0013736 Arg of perigee: 198.8803 deg Mean anomaly: 295.6088 deg Mean motion: 14.11544699 rev/day Decay rate: 1.63e-06 rev/day^2 Epoch rev: 23582 Checksum: 361
/EX SB KEPS @ AMSAT $ORB13248.M Orbital Elements 13248.MISC
HR AMSAT ORBITAL ELEMENTS FOR MANNED AND MISCELLANEOUS SATELLITES FROM WA5QGD FORT WORTH,TX September 5, 2013 BID: ORB13248.M TO ALL RADIO AMATEURS BT
Satellite: HUBBLE Catalog number: 20580 Epoch time: 13248.83870258 Element set: 325 Inclination: 028.4698 deg RA of node: 104.0069 deg Eccentricity: 0.0003119 Arg of perigee: 127.2079 deg Mean anomaly: 344.7728 deg Mean motion: 15.03898250 rev/day Decay rate: 1.424e-05 rev/day^2 Epoch rev: 8185 Checksum: 300
Satellite: ISS Catalog number: 25544 Epoch time: 13248.90660940 Element set: 534 Inclination: 051.6491 deg RA of node: 068.3467 deg Eccentricity: 0.0003667 Arg of perigee: 039.9639 deg Mean anomaly: 111.0705 deg Mean motion: 15.50394915 rev/day Decay rate: -1.291e-05 rev/day^2 Epoch rev: 84722 Checksum: 307
Satellite: CO-58 Catalog number: 28895 Epoch time: 13247.58592162 Element set: 564 Inclination: 097.8602 deg RA of node: 099.0007 deg Eccentricity: 0.0017610 Arg of perigee: 187.0754 deg Mean anomaly: 173.0202 deg Mean motion: 14.61216881 rev/day Decay rate: 3.93e-06 rev/day^2 Epoch rev: 41853 Checksum: 318
Satellite: FALCON Catalog number: 30776 Epoch time: 13248.82971494 Element set: 690 Inclination: 035.4301 deg RA of node: 067.0089 deg Eccentricity: 0.0002203 Arg of perigee: 288.1206 deg Mean anomaly: 197.9279 deg Mean motion: 15.11326483 rev/day Decay rate: 4.050e-05 rev/day^2 Epoch rev: 35762 Checksum: 298
Satellite: MAST Catalog number: 31126 Epoch time: 13248.76937804 Element set: 845 Inclination: 097.8880 deg RA of node: 240.1211 deg Eccentricity: 0.0093852 Arg of perigee: 160.6967 deg Mean anomaly: 286.0054 deg Mean motion: 14.54659619 rev/day Decay rate: 3.06e-06 rev/day^2 Epoch rev: 33903 Checksum: 316
Satellite: CAPE1 Catalog number: 31130 Epoch time: 13248.65507447 Element set: 847 Inclination: 097.9058 deg RA of node: 236.4034 deg Eccentricity: 0.0100831 Arg of perigee: 177.1662 deg Mean anomaly: 183.0128 deg Mean motion: 14.53603310 rev/day Decay rate: 4.22e-06 rev/day^2 Epoch rev: 33846 Checksum: 277
Satellite: COMPASS Catalog number: 32787 Epoch time: 13248.75609723 Element set: 721 Inclination: 097.7441 deg RA of node: 305.2127 deg Eccentricity: 0.0015165 Arg of perigee: 044.6737 deg Mean anomaly: 315.5698 deg Mean motion: 14.85823832 rev/day Decay rate: 1.385e-05 rev/day^2 Epoch rev: 28992 Checksum: 331
Satellite: AAUSAT2 Catalog number: 32788 Epoch time: 13247.72910543 Element set: 703 Inclination: 097.7451 deg RA of node: 304.9082 deg Eccentricity: 0.0014734 Arg of perigee: 047.3378 deg Mean anomaly: 312.9077 deg Mean motion: 14.86306999 rev/day Decay rate: 1.727e-05 rev/day^2 Epoch rev: 28981 Checksum: 335
Satellite: DO-64 Catalog number: 32789 Epoch time: 13248.77226397 Element set: 735 Inclination: 097.7608 deg RA of node: 310.1921 deg Eccentricity: 0.0013840 Arg of perigee: 036.2293 deg Mean anomaly: 104.7645 deg Mean motion: 14.89177622 rev/day Decay rate: 2.909e-05 rev/day^2 Epoch rev: 29011 Checksum: 326
Satellite: CO-66 Catalog number: 32791 Epoch time: 13248.17472020 Element set: 699 Inclination: 097.7441 deg RA of node: 303.9023 deg Eccentricity: 0.0015797 Arg of perigee: 047.8508 deg Mean anomaly: 019.1631 deg Mean motion: 14.84899891 rev/day Decay rate: 9.38e-06 rev/day^2 Epoch rev: 28974 Checksum: 354
Satellite: RS-30 Catalog number: 32953 Epoch time: 13248.78958834 Element set: 187 Inclination: 082.5040 deg RA of node: 018.0577 deg Eccentricity: 0.0019447 Arg of perigee: 058.9896 deg Mean anomaly: 301.3092 deg Mean motion: 12.43036832 rev/day Decay rate: 1.0e-07 rev/day^2 Epoch rev: 23992 Checksum: 315
Satellite: METEOR-M Catalog number: 35865 Epoch time: 13248.72773866 Element set: 781 Inclination: 098.5951 deg RA of node: 299.1413 deg Eccentricity: 0.0002005 Arg of perigee: 181.1322 deg Mean anomaly: 178.9858 deg Mean motion: 14.21892083 rev/day Decay rate: -2.4e-07 rev/day^2 Epoch rev: 20591 Checksum: 317
Satellite: RS-38 Catalog number: 35869 Epoch time: 13248.74702116 Element set: 733 Inclination: 098.5868 deg RA of node: 299.0498 deg Eccentricity: 0.0004290 Arg of perigee: 188.9149 deg Mean anomaly: 171.1936 deg Mean motion: 14.22142832 rev/day Decay rate: -1.0e-08 rev/day^2 Epoch rev: 20594 Checksum: 332
Satellite: JUGNU Catalog number: 37839 Epoch time: 13247.24359977 Element set: 456 Inclination: 019.9605 deg RA of node: 187.7603 deg Eccentricity: 0.0019260 Arg of perigee: 074.2427 deg Mean anomaly: 076.2452 deg Mean motion: 14.12177483 rev/day Decay rate: 3.84e-06 rev/day^2 Epoch rev: 9808 Checksum: 327
Satellite: SRMSAT Catalog number: 37841 Epoch time: 13248.18270462 Element set: 457 Inclination: 019.9712 deg RA of node: 195.7093 deg Eccentricity: 0.0012060 Arg of perigee: 035.5015 deg Mean anomaly: 085.0142 deg Mean motion: 14.10244558 rev/day Decay rate: 3.66e-06 rev/day^2 Epoch rev: 9807 Checksum: 280
Satellite: RAX-2 Catalog number: 37853 Epoch time: 13248.73740062 Element set: 586 Inclination: 101.6999 deg RA of node: 139.7136 deg Eccentricity: 0.0233235 Arg of perigee: 156.3693 deg Mean anomaly: 243.2433 deg Mean motion: 14.84201201 rev/day Decay rate: 2.247e-05 rev/day^2 Epoch rev: 10039 Checksum: 291
